TimeCST,TemperatureF,Dew PointF,Humidity,Sea Level PressureIn,VisibilityMPH,Wind Direction,Wind SpeedMPH,Gust SpeedMPH,PrecipitationIn,Events,Conditions,WindDirDegrees,DateUTC
12:15 AM,41.7,41.7,100,30.23,10.0,Calm,Calm,-,N/A,,Unknown,0,2012-12-01 06:15:00
12:35 AM,41.2,41.2,100,30.23,10.0,Calm,Calm,-,N/A,,Unknown,0,2012-12-01 06:35:00
12:55 AM,41.7,41.7,100,30.23,10.0,Calm,Calm,-,N/A,,Unknown,0,2012-12-01 06:55:00
1:15 AM,42.4,42.4,100,30.23,0.5,Calm,Calm,-,N/A,Fog,Fog,0,2012-12-01 07:15:00
1:35 AM,43.2,43.2,100,30.23,0.2,Calm,Calm,-,N/A,Fog,Fog,0,2012-12-01 07:35:00
1:55 AM,43.2,43.2,100,30.23,0.2,Calm,Calm,-,N/A,Fog,Fog,0,2012-12-01 07:55:00
2:15 AM,44.2,44.2,100,30.23,0.2,Calm,Calm,-,N/A,Fog,Fog,0,2012-12-01 08:15:00
3:35 AM,43.9,43.9,100,30.23,0.5,Calm,Calm,-,N/A,Fog,Fog,0,2012-12-01 09:35:00
3:55 AM,44.2,44.2,100,30.23,0.2,Calm,Calm,-,N/A,Fog,Fog,0,2012-12-01 09:55:00
4:15 AM,43.7,43.7,100,30.23,0.5,Calm,Calm,-,N/A,Fog,Fog,0,2012-12-01 10:15:00
4:35 AM,43.9,43.9,100,30.23,0.2,Calm,Calm,-,N/A,Fog,Fog,0,2012-12-01 10:35:00
4:55 AM,43.7,43.7,100,30.23,0.2,Calm,Calm,-,N/A,Fog,Fog,0,2012-12-01 10:55:00
5:15 AM,43.7,43.7,100,30.24,0.2,Calm,Calm,-,N/A,Fog,Fog,0,2012-12-01 11:15:00
5:35 AM,43.0,43.0,100,30.24,0.2,Calm,Calm,-,N/A,Fog,Fog,0,2012-12-01 11:35:00
5:55 AM,42.8,42.8,100,30.25,0.2,Calm,Calm,-,N/A,Fog,Fog,0,2012-12-01 11:55:00
6:35 AM,43.3,43.3,100,30.26,0.2,Calm,Calm,-,N/A,Fog,Fog,0,2012-12-01 12:35:00
6:55 AM,43.3,43.3,100,30.27,0.2,Calm,Calm,-,N/A,Fog,Fog,0,2012-12-01 12:55:00
7:15 AM,43.7,43.7,100,30.27,0.2,Calm,Calm,-,N/A,Fog,Fog,0,2012-12-01 13:15:00
7:35 AM,44.4,44.4,100,30.27,0.2,Calm,Calm,-,N/A,Fog,Fog,0,2012-12-01 13:35:00
7:55 AM,45.3,45.3,100,30.27,0.2,Calm,Calm,-,N/A,Fog,Fog,0,2012-12-01 13:55:00
8:15 AM,46.2,46.2,100,30.28,0.2,Calm,Calm,-,N/A,Fog,Fog,0,2012-12-01 14:15:00
8:35 AM,47.3,47.3,100,30.28,0.2,Calm,Calm,-,N/A,Fog,Fog,0,2012-12-01 14:35:00
9:15 AM,50.7,50.7,100,30.29,0.2,Calm,Calm,-,N/A,Fog,Fog,0,2012-12-01 15:15:00
9:35 AM,52.7,52.7,100,30.29,0.8,Calm,Calm,-,N/A,,Mist,0,2012-12-01 15:35:00
9:55 AM,54.5,54.5,100,30.29,5.0,Calm,Calm,-,N/A,,Mist,0,2012-12-01 15:55:00
10:15 AM,57.0,57.0,100,30.29,10.0,Calm,Calm,-,N/A,,Unknown,0,2012-12-01 16:15:00
10:35 AM,59.2,59.2,100,30.29,10.0,Calm,Calm,-,N/A,,Unknown,0,2012-12-01 16:35:00
10:55 AM,65.3,55.9,72,30.28,10.0,Calm,Calm,-,N/A,,Unknown,0,2012-12-01 16:55:00
11:15 AM,70.3,53.1,54,30.27,10.0,Calm,Calm,-,N/A,,Unknown,0,2012-12-01 17:15:00
11:35 AM,71.1,52.5,52,30.26,10.0,Calm,Calm,-,N/A,,Clear,0,2012-12-01 17:35:00
11:55 AM,72.1,52.2,49,30.25,10.0,Calm,Calm,-,N/A,,Clear,0,2012-12-01 17:55:00
12:15 PM,73.8,54.0,50,30.24,10.0,Calm,Calm,-,N/A,,Unknown,0,2012-12-01 18:15:00
12:35 PM,73.9,53.4,49,30.23,10.0,South,3.5,-,N/A,,Unknown,190,2012-12-01 18:35:00
12:55 PM,75.2,54.7,49,30.22,10.0,Calm,Calm,-,N/A,,Unknown,0,2012-12-01 18:55:00
1:15 PM,74.1,55.2,52,30.21,10.0,South,3.5,-,N/A,,Unknown,170,2012-12-01 19:15:00
1:35 PM,75.7,57.0,52,30.21,10.0,ESE,6.9,-,N/A,,Unknown,120,2012-12-01 19:35:00
1:55 PM,76.3,56.5,50,30.20,10.0,South,6.9,-,N/A,,Unknown,180,2012-12-01 19:55:00
2:15 PM,72.9,57.2,58,30.20,10.0,SE,5.8,-,N/A,,Unknown,140,2012-12-01 20:15:00
2:35 PM,73.0,57.4,58,30.20,10.0,SSE,10.4,-,N/A,,Scattered Clouds,150,2012-12-01 20:35:00
2:55 PM,73.8,57.2,56,30.20,10.0,SE,6.9,-,N/A,,Clear,140,2012-12-01 20:55:00
3:15 PM,71.6,58.1,62,30.20,10.0,SSE,8.1,-,N/A,,Mostly Cloudy,160,2012-12-01 21:15:00
3:35 PM,71.1,57.9,63,30.21,10.0,SSE,12.7,17.3,N/A,,Mostly Cloudy,160,2012-12-01 21:35:00
3:55 PM,70.5,58.1,65,30.21,10.0,SSE,10.4,-,N/A,,Scattered Clouds,150,2012-12-01 21:55:00
4:15 PM,70.7,58.1,64,30.21,10.0,SSE,11.5,-,N/A,,Mostly Cloudy,160,2012-12-01 22:15:00
4:35 PM,69.4,58.1,67,30.21,10.0,SSE,5.8,-,N/A,,Scattered Clouds,150,2012-12-01 22:35:00
5:15 PM,67.3,58.5,73,30.21,10.0,SSE,5.8,-,N/A,,Clear,150,2012-12-01 23:15:00
5:55 PM,66.0,58.5,77,30.22,10.0,SSE,3.5,-,N/A,,Unknown,150,2012-12-01 23:55:00
6:15 PM,65.1,58.6,79,30.22,10.0,Calm,Calm,-,N/A,,Unknown,0,2012-12-02 00:15:00
6:35 PM,64.0,58.5,82,30.23,10.0,Calm,Calm,-,N/A,,Unknown,0,2012-12-02 00:35:00
6:55 PM,62.8,61.9,97,30.23,10.0,Calm,Calm,-,N/A,,Unknown,0,2012-12-02 00:55:00
7:15 PM,59.2,59.2,100,30.23,10.0,Calm,Calm,-,N/A,,Unknown,0,2012-12-02 01:15:00
7:35 PM,59.9,59.9,100,30.23,10.0,Calm,Calm,-,N/A,,Unknown,0,2012-12-02 01:35:00
7:55 PM,60.6,60.6,100,30.23,10.0,SSE,3.5,-,N/A,,Unknown,160,2012-12-02 01:55:00
8:15 PM,59.9,59.9,100,30.23,10.0,Calm,Calm,-,N/A,,Unknown,0,2012-12-02 02:15:00
8:35 PM,60.1,60.1,100,30.23,10.0,Calm,Calm,-,N/A,,Unknown,0,2012-12-02 02:35:00
8:55 PM,58.5,58.5,100,30.24,10.0,Calm,Calm,-,N/A,,Clear,0,2012-12-02 02:55:00
9:15 PM,57.6,57.6,100,30.24,10.0,Calm,Calm,-,N/A,,Mostly Cloudy,0,2012-12-02 03:15:00
9:35 PM,57.9,57.9,100,30.24,10.0,Calm,Calm,-,N/A,,Mostly Cloudy,0,2012-12-02 03:35:00
9:55 PM,58.8,58.8,100,30.24,10.0,Calm,Calm,-,N/A,,Mostly Cloudy,0,2012-12-02 03:55:00
10:15 PM,54.7,54.7,100,30.24,7.0,Calm,Calm,-,N/A,,Mostly Cloudy,0,2012-12-02 04:15:00
10:35 PM,55.8,55.8,100,30.24,5.0,Calm,Calm,-,N/A,,Overcast,0,2012-12-02 04:35:00
10:55 PM,54.0,54.0,100,30.24,4.0,Calm,Calm,-,N/A,,Scattered Clouds,0,2012-12-02 04:55:00
11:15 PM,54.5,54.5,100,30.24,3.0,Calm,Calm,-,N/A,,Mist,0,2012-12-02 05:15:00
11:35 PM,54.0,54.0,100,30.24,0.5,Calm,Calm,-,N/A,Fog,Fog,0,2012-12-02 05:35:00
11:55 PM,53.2,53.2,100,30.24,0.2,Calm,Calm,-,N/A,Fog,Fog,0,2012-12-02 05:55:00